Regional Weather Roundup
Issued by NWS

Home | Current Version | Previous Version | Graphics & Text | Print | Product List | Glossary On
Versions: 1 2 3 4 5 6 7 8 9 10 11 12 13 14 15 16 17 18 19 20 21 22 23 24 25 26 27 28 29 30 31 32 33 34 35 36 37 38 39 40 41 42 43 44 45 46 47 48 49 50
000
ASUS43 KLSX 261059
RWRMO

WEATHER SUMMARY FOR MISSOURI
NATIONAL WEATHER SERVICE SPRINGFIELD MO
600 AM CDT SAT JUL 26 2014

NOTE: "FAIR" INDICATES FEW OR NO CLOUDS BELOW 12,000 FEET WITH NO
       SIGNIFICANT WEATHER AND/OR OBSTRUCTIONS TO VISIBILITY.
       CURRENT SKY AND/OR WEATHER CONDITIONS ARE NOT AVAILABLE FOR
       CHILLICOTHE AND FARMINGTON.

MOZ001>031-035>038-043-044-053-054-261200-
...NORTHERN AND WESTERN MISSOURI...

CITY           SKY/WX    TMP DP  RH WIND       PRES   REMARKS
KANSAS CTY INT MOCLDY    76  70  82 SW6       29.81S
KANSAS C DTWN  PTCLDY    82  70  66 SW14      29.80S
LEE`S SUMMIT   CLEAR     78  70  76 SW9       29.84S
ST JOSEPH      MOCLDY    73  71  93 CALM      29.79F
CHILLICOTHE      N/A     74  72  93 S3        29.83S
KIRKSVILLE     PTCLDY    74  71  91 SW6       29.83S

$$
MOZ066>068-077>081-088>096-101>105-261200-
...SOUTHWEST MISSOURI...

CITY           SKY/WX    TMP DP  RH WIND       PRES   REMARKS
SPRINGFIELD    CLOUDY    73  71  93 S10       29.94R
JOPLIN         PTCLDY    77  71  82 S13       29.92R

$$
MOZ032>034-039>042-045>050-055>058-069>072-261200-
...CENTRAL MISSOURI...

CITY           SKY/WX    TMP DP  RH WIND       PRES   REMARKS
COLUMBIA       PTCLDY    72  71  97 S7        29.87R
JEFFERSON CITY PTCLDY    74  70  87 CALM      29.87R
ROLLA          PTCLDY    73  69  87 SW13      29.90R
SEDALIA        PTCLDY    78  71  79 SW14G25   29.86S HAZE
OSAGE BEACH    PTCLDY    77  70  78 SW10      29.90R

$$
MOZ051-052-059>065-261200-
...EAST CENTRAL MISSOURI...

CITY           SKY/WX    TMP DP  RH WIND       PRES   REMARKS
ST LOUIS INTL  PTCLDY    73  66  78 S8        29.88F
SPIRIT OF STL  CLOUDY    72  67  84 CALM      29.87S
ST CHARLES     PTCLDY    69  65  86 MISG      29.87S

$$
MOZ072>076-082>087-097>100-106>115-261200-
...SOUTH CENTRAL AND SOUTHEAST MISSOURI...

CITY           SKY/WX    TMP DP  RH WIND       PRES   REMARKS
CAPE GIRARDEAU CLEAR     66  63  90 E7        29.95R
FARMINGTON     PTCLDY    70  66  88 S7        29.95R
POPLAR BLUFF   CLEAR     69  65  86 S5        29.94R
WEST PLAINS    CLEAR     70  68  93 SW5       29.99R FOG

$$


USA.gov is the U.S. government's official web portal to all federal, state and local government web resources and services.